Change the Weather History Date:

Monday, September 22, 2014

  Actual Average Record
Temperature  
Mean Temperature 64 °F 61 °F  
Max Temperature 70 °F 75 °F 95 °F (1989)
Min Temperature 57 °F 47 °F 32 °F (1902)
Degree Days  
Heating Degree Days 1 5  
Month to date heating degree days 4 63  
Since 1 July heating degree days 8 119  
Cooling Degree Days 0 1  
Month to date cooling degree days 73 33  
Year to date cooling degree days 591 285  
Growing Degree Days 15 (Base 50)    
Moisture  
Dew Point 54 °F    
Average Humidity 75    
Maximum Humidity 93    
Minimum Humidity 57    
Precipitation  
Precipitation T in 0.05 in 0.70 in (1925)
Month to date precipitation 0.01 0.83  
Year to date precipitation 22.83 22.83  
Sea Level Pressure  
Sea Level Pressure 29.97 in    
Wind  
Wind Speed 5 mph (South)    
Max Wind Speed 10 mph    
Max Gust Speed 13 mph    
Visibility 10 miles    
Events Rain    
T = Trace of Precipitation, MM = Missing Value Source: NWS Daily Summary

Daily Weather History Graph

Daily Weather History Graph

Search for Another Location

Airport or City:

Trip Planner

Search our weather history database for the weather conditions in past years. The results will help you decide how hot, cold, wet, or windy it might be!

Date:

Astronomy

Sep. 22, 2014 Rise Set
Actual Time 6:59 AM PDT 7:09 PM PDT
Civil Twilight 6:29 AM PDT 7:38 PM PDT
Nautical Twilight 5:55 AM PDT 8:12 PM PDT
Astronomical Twilight 5:20 AM PDT 8:47 PM PDT
Moon 5:30 AM PDT (9/22) 6:21 PM PDT (9/22)
Length of Visible Light 13h 08m
Length of Day
12h 10m
Waning Crescent, 2% of the Moon is Illuminated
Sep 22
Waning Crescent
Sep 23
New
Oct 1
First Quarter
Oct 8
Full
Oct 15
Last Quarter

Hourly Weather History & Observations

Time (PDT) Temp. Dew Point Humidity Pressure Visibility Wind Dir Wind Speed Gust Speed Precip Events Conditions
12:56 AM 59.0 °F 54.0 °F 83% 29.98 in 10.0 mi SE 10.4 mph - N/A   Clear
1:42 AM 59.0 °F 54.0 °F 83% 29.99 in 10.0 mi Calm Calm - N/A   Mostly Cloudy
1:56 AM 60.1 °F 54.0 °F 80% 29.98 in 10.0 mi SSW 4.6 mph - N/A   Mostly Cloudy
2:39 AM 61.0 °F 54.0 °F 78% 29.99 in 10.0 mi SSW 6.9 mph - N/A   Partly Cloudy
2:56 AM 61.0 °F 54.0 °F 78% 29.99 in 10.0 mi SSW 8.1 mph - N/A   Clear
3:56 AM 57.9 °F 53.1 °F 84% 29.99 in 10.0 mi SE 8.1 mph - N/A   Mostly Cloudy
4:05 AM 57.9 °F 53.1 °F 84% 29.99 in 10.0 mi SE 6.9 mph - N/A   Partly Cloudy
4:23 AM 59.0 °F 54.0 °F 83% 29.99 in 10.0 mi South 4.6 mph - N/A   Mostly Cloudy
4:56 AM 60.1 °F 55.0 °F 83% 29.99 in 10.0 mi SSE 4.6 mph - N/A   Overcast
5:56 AM 61.0 °F 54.0 °F 78% 30.00 in 10.0 mi South 5.8 mph - N/A   Overcast
6:56 AM 61.0 °F 54.0 °F 78% 30.00 in 10.0 mi South 4.6 mph - N/A   Overcast
7:56 AM 62.1 °F 54.0 °F 75% 30.00 in 10.0 mi SSE 5.8 mph - N/A   Overcast
8:56 AM 63.0 °F 54.0 °F 72% 30.01 in 10.0 mi SSW 5.8 mph - N/A   Overcast
9:56 AM 64.0 °F 54.0 °F 70% 30.02 in 10.0 mi SSW 8.1 mph - N/A   Overcast
10:56 AM 64.9 °F 53.1 °F 65% 30.02 in 10.0 mi SW 8.1 mph - N/A   Overcast
11:56 AM 64.9 °F 54.0 °F 68% 30.01 in 10.0 mi SW 5.8 mph - N/A   Overcast
12:49 PM 66.0 °F 54.0 °F 65% 29.99 in 10.0 mi Calm Calm - N/A   Scattered Clouds
12:56 PM 66.0 °F 54.0 °F 65% 30.00 in 10.0 mi SSE 5.8 mph - N/A   Mostly Cloudy
1:05 PM 66.9 °F 54.0 °F 63% 29.98 in 10.0 mi SE 8.1 mph - N/A   Mostly Cloudy
1:56 PM 68.0 °F 53.1 °F 59% 29.97 in 10.0 mi Variable 3.5 mph - N/A   Mostly Cloudy
2:03 PM 69.1 °F 53.1 °F 57% 29.97 in 10.0 mi Variable 4.6 mph - N/A   Mostly Cloudy
2:56 PM 69.1 °F 53.1 °F 57% 29.96 in 10.0 mi SE 8.1 mph - 0.00 in   Mostly Cloudy
3:56 PM 69.1 °F 53.1 °F 57% 29.95 in 10.0 mi SE 4.6 mph - N/A   Overcast
4:56 PM 69.1 °F 54.0 °F 58% 29.93 in 10.0 mi SSE 3.5 mph - 0.00 in   Mostly Cloudy
5:56 PM 69.1 °F 55.0 °F 61% 29.91 in 10.0 mi Calm Calm - N/A   Overcast
6:56 PM 66.9 °F 55.0 °F 66% 29.92 in 10.0 mi SE 4.6 mph - N/A   Partly Cloudy
7:56 PM 66.0 °F 55.9 °F 70% 29.91 in 10.0 mi Calm Calm - N/A   Clear
8:56 PM 64.0 °F 57.9 °F 80% 29.91 in 10.0 mi South 4.6 mph - 0.00 in Rain Light Rain
9:56 PM 63.0 °F 57.9 °F 84% 29.93 in 10.0 mi SW 3.5 mph - 0.00 in   Partly Cloudy
10:56 PM 61.0 °F 57.0 °F 87% 29.91 in 10.0 mi Calm Calm - N/A   Clear
11:56 PM 59.0 °F 57.0 °F 93% 29.91 in 10.0 mi SSE 5.8 mph - N/A   Clear